Regional Weather Roundup
Issued by NWS

Home | Current Version | Previous Version | Graphics & Text | Print | Product List | Glossary On
Versions: 1 2 3 4 5 6 7 8 9 10 11 12 13 14 15 16 17 18 19 20 21 22 23 24 25 26 27 28 29 30 31 32 33 34 35 36 37 38 39 40 41 42 43 44 45 46 47 48 49 50
000
ASUS43 KTOP 261308
RWRKS

WEATHER ROUNDUP FOR KANSAS
NATIONAL WEATHER SERVICE GOODLAND KS
700 AM CST MON JAN 26 2015

NOTE:  "FAIR" INDICATES FEW OR NO CLOUDS BELOW 12,000 FEET WITH NO
SIGNIFICANT WEATHER AND/OR OBSTRUCTIONS TO VISIBILITY.

KSZ001>006-013>018-027>032-041>047-261400-
NORTHWEST KANSAS

CITY           SKY/WX    TMP DP  RH WIND       PRES   REMARKS
GOODLAND       CLEAR     40  30  67 W18       30.12R WCI  31
HAYS           CLEAR     32  21  64 W3        30.03S
HILL CITY      PTCLDY    44  31  60 NW12      30.03S
RUSSELL        CLEAR     32  28  85 W12       30.00R WCI  23
$$

KSZ061>065-074>080-084>089-261400-
SOUTHWEST KANSAS

CITY           SKY/WX    TMP DP  RH WIND       PRES   REMARKS
DODGE CITY     CLEAR     39  28  64 W17       30.10R WCI  30
ELKHART          N/A    N/A N/A N/A MISG        N/A
GARDEN CITY    CLEAR     38  29  70 W13       30.11S WCI  30
GREAT BEND     CLEAR     39  28  65 W14       30.04S WCI  31
LIBERAL        CLEAR     36  25  64 NW10      30.16R WCI  28
PRATT          CLEAR     36  30  80 W13       30.05S WCI  27
$$

KSZ066>073-081>083-090>101-261400-
SOUTHEAST KANSAS

CITY           SKY/WX    TMP DP  RH WIND       PRES   REMARKS
CHANUTE        CLEAR     26  25  96 S6        30.08F
COFFEYVILLE    CLEAR     25  24  96 S6        30.12S
HUTCHINSON     CLEAR     33  27  78 CALM      30.03F
MEDICINE LODGE   N/A     25  21  85 CALM      30.06F
NEWTON         CLEAR     32  25  74 SW14      30.02F WCI  22
PARSONS        CLEAR     22  21  96 CALM      30.10F FOG
WICHITA INTL   CLEAR     29  24  82 SW12      30.03F WCI  19
WICHITA JABRA  CLEAR     35  29  78 SW12      30.03F WCI  27
WICHITA MCCONL CLEAR     32  28  85 SW9       30.04F
WINFIELD       CLEAR     26  23  88 S3        30.08F
$$

KSZ007>012-019>026-033>040-048>060-102>105-261400-
NORTHEAST KANSAS

CITY           SKY/WX    TMP DP  RH WIND       PRES   REMARKS
CONCORDIA      CLEAR     33  27  78 W10       29.96S WCI  25
EMPORIA        CLEAR     28  26  92 S8        30.02F
LAWRENCE       CLEAR     21  19  92 CALM      30.03F
MANHATTAN      CLEAR     30  27  88 SW7       29.98F
MARYSVILLE     CLEAR     32  28  86 SW6       29.96R
OLATHE IND     CLEAR     28  26  92 SW8       30.03F
OLATHE EXE     CLEAR     28  26  92 SW6       30.02S
SALINA         CLEAR     34  27  75 SW13      30.01R WCI  25
TOPEKA BILLARD CLEAR     29  26  89 SW3       30.01F
TOPEKA FORBES  CLEAR     30  26  85 S6        30.00F
$$


USA.gov is the U.S. government's official web portal to all federal, state and local government web resources and services.